Station Historical Data
 
Daily Summary for December 12, 2017 Units:  English    Metric   Both
« Previous Day
Next Day »
Daily Weekly Monthly Yearly Custom
  Current: High: Low: Average:
Temperature: 41.5 °F 42.2 °F 40.9 °F 41.3 °F
Dew Point: 34.2 °F 35.3 °F 33.4 °F 34 °F
Humidity: 75 % 80 % 73 % 75 %
Wind Speed: 0.0 mph 4.0 mph 0.0 mph 0.3 mph
Wind Gust: 4.0 mph 10.0 mph - -
Wind:Calm - - SSE
Pressure: 29.63 in 29.88 in 29.63 in -
Precipitation: 0.01 in      
Historical Graphs
 
 
Tabular Data for December 12, 2017
Time Temperature Dew Point Pressure Wind Wind Speed Wind Gust Humidity Rainfall Rate (Hourly)
00:00 40.9 °F 33.6 °F 29.88 in ESE 1.0 mph 5.0 mph 75 % 0.00 in
00:04 41.0 °F 33.4 °F 29.87 in Calm   5.0 mph 74 % 0.00 in
00:10 41.0 °F 33.4 °F 29.87 in Calm   5.0 mph 74 % 0.00 in
00:14 41.0 °F 33.4 °F 29.86 in Calm   4.0 mph 74 % 0.00 in
00:24 41.0 °F 33.7 °F 29.87 in Calm   4.0 mph 75 % 0.00 in
00:29 40.9 °F 33.6 °F 29.86 in Calm   4.0 mph 75 % 0.00 in
00:34 40.9 °F 33.6 °F 29.86 in Calm   4.0 mph 75 % 0.00 in
00:39 40.9 °F 33.6 °F 29.86 in Calm   5.0 mph 75 % 0.00 in
00:44 40.9 °F 33.6 °F 29.86 in Calm   5.0 mph 75 % 0.00 in
00:49 41.0 °F 33.7 °F 29.85 in SE 1.0 mph 5.0 mph 75 % 0.00 in
00:54 41.0 °F 33.7 °F 29.85 in Calm   5.0 mph 75 % 0.00 in
00:59 41.0 °F 33.7 °F 29.85 in Calm   5.0 mph 75 % 0.01 in
01:04 41.1 °F 33.8 °F 29.84 in Calm   6.0 mph 75 % 0.01 in
01:09 41.2 °F 33.5 °F 29.84 in Calm   6.0 mph 74 % 0.01 in
01:14 41.2 °F 33.6 °F 29.84 in Calm   6.0 mph 74 % 0.01 in
01:19 41.2 °F 33.6 °F 29.83 in Calm   3.0 mph 74 % 0.01 in
01:24 41.3 °F 34.0 °F 29.83 in Calm   8.0 mph 75 % 0.01 in
01:29 41.5 °F 33.9 °F 29.83 in Calm   8.0 mph 74 % 0.01 in
01:34 41.8 °F 34.2 °F 29.82 in ENE 3.0 mph 10.0 mph 74 % 0.01 in
01:39 42.0 °F 34.0 °F 29.81 in Calm   10.0 mph 73 % 0.01 in
01:44 42.1 °F 34.1 °F 29.81 in SE 3.0 mph 10.0 mph 73 % 0.01 in
01:49 42.2 °F 34.2 °F 29.81 in Calm   10.0 mph 73 % 0.01 in
01:54 42.1 °F 34.1 °F 29.81 in Calm   8.0 mph 73 % 0.01 in
01:59 42.1 °F 34.1 °F 29.81 in South 2.0 mph 8.0 mph 73 % 0.00 in
02:04 42.0 °F 34.3 °F 29.80 in Calm   6.0 mph 74 % 0.00 in
02:05 42.0 °F 34.3 °F 29.80 in Calm   6.0 mph 74 % 0.00 in
02:10 41.9 °F 34.2 °F 29.80 in Calm   6.0 mph 74 % 0.00 in
02:15 41.8 °F 34.1 °F 29.80 in Calm   6.0 mph 74 % 0.00 in
02:20 41.6 °F 34.3 °F 29.79 in Calm   5.0 mph 75 % 0.00 in
02:24 41.6 °F 34.3 °F 29.78 in East 3.0 mph 8.0 mph 75 % 0.00 in
02:29 41.6 °F 34.3 °F 29.78 in SW 2.0 mph 8.0 mph 75 % 0.00 in
02:34 41.5 °F 34.2 °F 29.77 in Calm   8.0 mph 75 % 0.00 in
02:40 41.6 °F 34.3 °F 29.78 in Calm   8.0 mph 75 % 0.00 in
02:44 41.6 °F 34.0 °F 29.77 in ENE 4.0 mph 6.0 mph 74 % 0.00 in
02:49 41.7 °F 34.1 °F 29.77 in WNW 2.0 mph 8.0 mph 74 % 0.00 in
02:54 41.8 °F 34.2 °F 29.76 in Calm   8.0 mph 74 % 0.00 in
02:59 41.8 °F 34.2 °F 29.76 in SW 1.0 mph 8.0 mph 74 % 0.00 in
03:00 41.8 °F 34.2 °F 29.76 in Calm   8.0 mph 74 % 0.00 in
03:05 41.7 °F 34.1 °F 29.76 in SSE 1.0 mph 8.0 mph 74 % 0.00 in
03:10 41.6 °F 34.0 °F 29.75 in East 2.0 mph 6.0 mph 74 % 0.00 in
03:20 41.3 °F 34.0 °F 29.74 in Calm   3.0 mph 75 % 0.00 in
03:25 41.3 °F 34.0 °F 29.74 in Calm   5.0 mph 75 % 0.00 in
03:30 41.3 °F 34.0 °F 29.74 in Calm   5.0 mph 75 % 0.00 in
03:35 41.3 °F 34.0 °F 29.74 in Calm   5.0 mph 75 % 0.00 in
03:40 41.2 °F 33.9 °F 29.73 in Calm   5.0 mph 75 % 0.00 in
03:45 41.2 °F 33.9 °F 29.74 in Calm   3.0 mph 75 % 0.00 in
03:50 41.1 °F 33.8 °F 29.73 in Calm   2.0 mph 75 % 0.00 in
03:55 41.1 °F 33.8 °F 29.73 in Calm   3.0 mph 75 % 0.00 in
04:00 41.1 °F 33.8 °F 29.72 in Calm   3.0 mph 75 % 0.00 in
04:05 41.0 °F 33.7 °F 29.72 in Calm   3.0 mph 75 % 0.00 in
04:10 41.0 °F 35.3 °F 29.71 in Calm   3.0 mph 80 % 0.00 in
04:15 41.1 °F 33.8 °F 29.71 in Calm   5.0 mph 75 % 0.00 in
04:20 41.1 °F 33.8 °F 29.71 in Calm   5.0 mph 75 % 0.00 in
04:25 41.2 °F 33.9 °F 29.70 in SE 1.0 mph 5.0 mph 75 % 0.00 in
04:30 41.3 °F 34.0 °F 29.70 in Calm   5.0 mph 75 % 0.00 in
04:35 41.3 °F 34.0 °F 29.70 in Calm   5.0 mph 75 % 0.00 in
04:40 41.3 °F 34.0 °F 29.70 in Calm   5.0 mph 75 % 0.00 in
04:45 41.3 °F 34.0 °F 29.69 in Calm   5.0 mph 75 % 0.00 in
04:50 41.3 °F 34.0 °F 29.69 in Calm   5.0 mph 75 % 0.00 in
04:55 41.2 °F 33.9 °F 29.69 in Calm   3.0 mph 75 % 0.00 in
05:00 41.2 °F 33.9 °F 29.69 in Calm   5.0 mph 75 % 0.00 in
05:05 41.1 °F 34.1 °F 29.68 in West 1.0 mph 5.0 mph 76 % 0.00 in
05:10 41.1 °F 34.1 °F 29.68 in Calm   5.0 mph 76 % 0.00 in
05:15 41.1 °F 34.1 °F 29.67 in Calm   3.0 mph 76 % 0.00 in
05:20 41.1 °F 34.1 °F 29.66 in Calm   3.0 mph 76 % 0.00 in
05:25 41.1 °F 34.1 °F 29.66 in Calm   3.0 mph 76 % 0.00 in
05:30 41.1 °F 34.1 °F 29.67 in Calm   4.0 mph 76 % 0.00 in
05:35 41.1 °F 34.1 °F 29.67 in Calm   4.0 mph 76 % 0.00 in
05:40 41.2 °F 34.2 °F 29.67 in Calm   4.0 mph 76 % 0.00 in
05:45 41.2 °F 33.9 °F 29.66 in Calm   4.0 mph 75 % 0.00 in
05:50 41.3 °F 34.0 °F 29.67 in SSW 1.0 mph 4.0 mph 75 % 0.00 in
05:55 41.3 °F 34.0 °F 29.67 in Calm   3.0 mph 75 % 0.00 in
06:00 41.2 °F 33.9 °F 29.66 in Calm   4.0 mph 75 % 0.00 in
06:05 41.2 °F 34.2 °F 29.66 in Calm   4.0 mph 76 % 0.00 in
06:10 41.2 °F 34.3 °F 29.66 in Calm   4.0 mph 76 % 0.00 in
06:15 41.1 °F 34.2 °F 29.66 in Calm   4.0 mph 76 % 0.00 in
06:20 41.1 °F 34.2 °F 29.66 in Calm   2.0 mph 76 % 0.00 in
06:25 41.1 °F 34.2 °F 29.65 in Calm   2.0 mph 76 % 0.00 in
06:30 41.2 °F 34.3 °F 29.64 in Calm   2.0 mph 76 % 0.00 in
06:35 41.2 °F 34.3 °F 29.64 in Calm   3.0 mph 76 % 0.00 in
06:36 41.2 °F 34.3 °F 29.64 in Calm   3.0 mph 76 % 0.00 in
06:41 41.2 °F 34.3 °F 29.64 in Calm   4.0 mph 76 % 0.00 in
06:46 41.3 °F 34.4 °F 29.64 in WSW 1.0 mph 4.0 mph 76 % 0.00 in
06:51 41.3 °F 34.4 °F 29.64 in Calm   4.0 mph 76 % 0.00 in
06:56 41.3 °F 34.4 °F 29.64 in Calm   4.0 mph 76 % 0.00 in
07:06 41.4 °F 34.1 °F 29.63 in Calm   5.0 mph 75 % 0.00 in
07:11 41.5 °F 34.2 °F 29.63 in Calm   5.0 mph 75 % 0.00 in
07:16 41.5 °F 34.2 °F 29.63 in SW 1.0 mph 5.0 mph 75 % 0.00 in
07:21 41.5 °F 34.2 °F 29.63 in Calm   3.0 mph 75 % 0.00 in
07:26 41.5 °F 34.2 °F 29.63 in Calm   4.0 mph 75 % 0.00 in
MarylandWx.com
Compliments of Weather Underground - 5.5 mb